Tiempo cada hora Cekcyn

Hoy, 19 Abril, Lunes

Tiempo Temperatura Precipitaciones Viento Presión Humedad
00:00 +8°C° 0 mm 2 mps 755 mmHg 88%
01:00 +7°C° 0 mm 2 mps 755 mmHg 87%
02:00 +7°C° 0 mm 2 mps 754 mmHg 88%
03:00 +6°C° 0 mm 2 mps 754 mmHg 88%
04:00 +6°C° 0 mm 2 mps 754 mmHg 89%
05:00 +7°C° 0 mm 2 mps 754 mmHg 87%
06:00 +8°C° 0 mm 2 mps 754 mmHg 84%
07:00 +9°C° 0 mm 3 mps 754 mmHg 81%
08:00 +11°C° 0 mm 3 mps 754 mmHg 72%
09:00 +13°C° 0 mm 3 mps 753 mmHg 63%
10:00 +17°C° 0 mm 4 mps 753 mmHg 54%
11:00 +17°C° 0 mm 4 mps 753 mmHg 48%
12:00 +18°C° 0 mm 4 mps 753 mmHg 43%
13:00 +19°C° 0 mm 4 mps 753 mmHg 38%
14:00 +18°C° 0 mm 4 mps 753 mmHg 40%
15:00 +18°C° 0 mm 4 mps 752 mmHg 41%
16:00 +17°C° 0 mm 5 mps 752 mmHg 42%
17:00 +15°C° 0 mm 4 mps 752 mmHg 48%
18:00 +13°C° 0 mm 4 mps 753 mmHg 55%
19:00 +11°C° 0 mm 4 mps 753 mmHg 61%
20:00 +10°C° 0 mm 3 mps 753 mmHg 64%
21:00 +9°C° 0 mm 2 mps 753 mmHg 68%
22:00 +8°C° 0 mm 2 mps 753 mmHg 71%
23:00 +8°C° 0 mm 2 mps 753 mmHg 73%

Mañana, 20 Abril, Martes

Tiempo Temperatura Precipitaciones Viento Presión Humedad
00:00 +9°C° 0 mm 1 mps 752 mmHg 76%
01:00 +9°C° 0 mm 1 mps 752 mmHg 78%
02:00 +9°C° 0 mm 1 mps 752 mmHg 79%
03:00 +10°C° 0 mm 1 mps 752 mmHg 79%
04:00 +10°C° 0 mm 1 mps 752 mmHg 79%
05:00 +10°C° 0 mm 1 mps 752 mmHg 77%
06:00 +11°C° 0 mm 1 mps 752 mmHg 75%
07:00 +11°C° 0 mm 1 mps 752 mmHg 73%
08:00 +12°C° 0.1 mm 1 mps 752 mmHg 68%
09:00 +13°C° 0.1 mm 1 mps 752 mmHg 62%
10:00 +14°C° 0.1 mm 2 mps 751 mmHg 57%
11:00 +15°C° 0.4 mm 2 mps 751 mmHg 55%
12:00 +15°C° 0.4 mm 1 mps 751 mmHg 54%
13:00 +16°C° 0.4 mm 1 mps 750 mmHg 52%
14:00 +15°C° 0.3 mm 1 mps 750 mmHg 52%
15:00 +15°C° 0.3 mm 1 mps 750 mmHg 53%
16:00 +15°C° 0.3 mm 1 mps 750 mmHg 53%
17:00 +14°C° 0.1 mm 1 mps 749 mmHg 59%
18:00 +13°C° 0.1 mm 1 mps 749 mmHg 65%
19:00 +12°C° 0.1 mm 1 mps 749 mmHg 71%
20:00 +11°C° 0 mm 1 mps 749 mmHg 74%
21:00 +9°C° 0 mm 2 mps 749 mmHg 78%
22:00 +8°C° 0 mm 2 mps 749 mmHg 81%
23:00 +9°C° 0 mm 1 mps 749 mmHg 81%

Pasado mañana, 21 Abril, Miércoles

Tiempo Temperatura Precipitaciones Viento Presión Humedad
00:00 +9°C° 0 mm 1 mps 749 mmHg 82%
01:00 +9°C° 0 mm 1 mps 749 mmHg 82%
02:00 +8°C° 0 mm 1 mps 748 mmHg 83%
03:00 +8°C° 0 mm 1 mps 748 mmHg 83%
04:00 +7°C° 0 mm 0 mps 748 mmHg 84%
05:00 +8°C° 0 mm 0 mps 748 mmHg 80%
06:00 +9°C° 0 mm 0 mps 748 mmHg 77%
07:00 +10°C° 0 mm 0 mps 748 mmHg 73%
08:00 +12°C° 0.1 mm 1 mps 748 mmHg 67%
09:00 +13°C° 0.1 mm 1 mps 747 mmHg 60%
10:00 +15°C° 0.1 mm 1 mps 747 mmHg 53%
11:00 +15°C° 0.2 mm 2 mps 747 mmHg 51%
12:00 +15°C° 0.2 mm 2 mps 747 mmHg 49%
13:00 +14°C° 0.2 mm 3 mps 746 mmHg 47%
14:00 +14°C° 0.1 mm 3 mps 746 mmHg 48%
15:00 +14°C° 0.1 mm 3 mps 746 mmHg 50%
16:00 +14°C° 0.1 mm 4 mps 746 mmHg 51%
17:00 +12°C° 0.1 mm 4 mps 746 mmHg 58%
18:00 +11°C° 0.1 mm 4 mps 746 mmHg 65%
19:00 +8°C° 0.1 mm 4 mps 746 mmHg 72%
20:00 +7°C° 0.1 mm 4 mps 746 mmHg 75%
21:00 +6°C° 0.1 mm 4 mps 746 mmHg 77%
22:00 +5°C° 0.1 mm 4 mps 747 mmHg 80%
23:00 +4°C° 0 mm 4 mps 747 mmHg 80%

22 Abril, Jueves

Tiempo Temperatura Precipitaciones Viento Presión Humedad
00:00 +4°C° 0 mm 4 mps 746 mmHg 80%
01:00 +3°C° 0 mm 4 mps 746 mmHg 80%
02:00 +1°C° 0 mm 4 mps 746 mmHg 80%
03:00 +1°C° 0 mm 5 mps 746 mmHg 80%
04:00 0°C° 0 mm 5 mps 746 mmHg 81%
05:00 -1°C° 0 mm 6 mps 746 mmHg 78%
06:00 -1°C° 0 mm 6 mps 746 mmHg 76%
07:00 0°C° 0 mm 7 mps 746 mmHg 73%
08:00 +2°C° 0 mm 7 mps 746 mmHg 70%
09:00 +2°C° 0 mm 7 mps 746 mmHg 68%
10:00 +3°C° 0 mm 7 mps 746 mmHg 65%
11:00 +3°C° 0.2 mm 7 mps 746 mmHg 67%
12:00 +4°C° 0.2 mm 7 mps 746 mmHg 69%
13:00 +4°C° 0.2 mm 7 mps 746 mmHg 71%
14:00 +4°C° 0.3 mm 7 mps 746 mmHg 71%
15:00 +4°C° 0.3 mm 7 mps 746 mmHg 71%
16:00 +4°C° 0.3 mm 7 mps 746 mmHg 71%
17:00 +3°C° 0.2 mm 7 mps 747 mmHg 76%
18:00 +2°C° 0.2 mm 6 mps 747 mmHg 81%
19:00 +1°C° 0.2 mm 5 mps 747 mmHg 86%
20:00 +1°C° 0.1 mm 5 mps 747 mmHg 85%
21:00 +1°C° 0.1 mm 5 mps 747 mmHg 85%
22:00 +1°C° 0.1 mm 4 mps 748 mmHg 84%
23:00 +1°C° 0 mm 5 mps 748 mmHg 86%

23 Abril, Viernes

Tiempo Temperatura Precipitaciones Viento Presión Humedad
00:00 +1°C° 0 mm 5 mps 748 mmHg 88%
01:00 0°C° 0 mm 5 mps 748 mmHg 91%
02:00 +1°C° 0 mm 5 mps 748 mmHg 88%
03:00 +1°C° 0 mm 5 mps 749 mmHg 86%
04:00 +1°C° 0 mm 5 mps 749 mmHg 84%
05:00 +1°C° 0 mm 5 mps 749 mmHg 83%
06:00 +2°C° 0 mm 5 mps 750 mmHg 81%
07:00 +2°C° 0 mm 5 mps 750 mmHg 80%
08:00 +3°C° 0.1 mm 5 mps 751 mmHg 75%
09:00 +3°C° 0.1 mm 5 mps 752 mmHg 71%
10:00 +4°C° 0.1 mm 6 mps 752 mmHg 67%
11:00 +5°C° 0.2 mm 6 mps 752 mmHg 61%
12:00 +5°C° 0.2 mm 6 mps 753 mmHg 55%
13:00 +6°C° 0.2 mm 7 mps 753 mmHg 48%
14:00 +6°C° 0.1 mm 7 mps 753 mmHg 46%
15:00 +6°C° 0.1 mm 7 mps 754 mmHg 43%
16:00 +7°C° 0.1 mm 6 mps 754 mmHg 41%
17:00 +5°C° 0 mm 5 mps 754 mmHg 44%
18:00 +4°C° 0 mm 4 mps 755 mmHg 46%
19:00 +3°C° 0 mm 3 mps 755 mmHg 49%
20:00 +2°C° 0 mm 3 mps 755 mmHg 53%
21:00 +2°C° 0 mm 3 mps 755 mmHg 57%
22:00 +2°C° 0 mm 3 mps 755 mmHg 61%
23:00 +2°C° 0.1 mm 3 mps 755 mmHg 64%

24 Abril, Sábado

Tiempo Temperatura Precipitaciones Viento Presión Humedad
00:00 +1°C° 0.1 mm 4 mps 754 mmHg 67%
01:00 +1°C° 0.1 mm 4 mps 754 mmHg 69%
02:00 +1°C° 0.1 mm 4 mps 753 mmHg 69%
03:00 +1°C° 0.1 mm 5 mps 753 mmHg 69%
04:00 +1°C° 0.1 mm 5 mps 752 mmHg 68%
05:00 +1°C° 0 mm 5 mps 752 mmHg 73%
06:00 +2°C° 0 mm 6 mps 752 mmHg 78%
07:00 +2°C° 0 mm 6 mps 751 mmHg 82%
08:00 +3°C° 0.1 mm 6 mps 751 mmHg 81%
09:00 +3°C° 0.1 mm 6 mps 751 mmHg 81%
10:00 +4°C° 0.1 mm 6 mps 751 mmHg 80%
11:00 +4°C° 0.4 mm 6 mps 752 mmHg 75%
12:00 +5°C° 0.4 mm 6 mps 752 mmHg 69%
13:00 +6°C° 0.4 mm 7 mps 752 mmHg 64%
14:00 +6°C° 0.2 mm 7 mps 752 mmHg 57%
15:00 +7°C° 0.2 mm 6 mps 753 mmHg 51%
16:00 +5°C° 0.2 mm 6 mps 753 mmHg 44%
17:00 +5°C° 0 mm 5 mps 754 mmHg 47%
18:00 +4°C° 0 mm 4 mps 754 mmHg 51%
19:00 +3°C° 0 mm 2 mps 755 mmHg 54%
20:00 +3°C° 0 mm 2 mps 755 mmHg 58%
21:00 +2°C° 0 mm 2 mps 755 mmHg 62%
22:00 0°C° 0 mm 3 mps 756 mmHg 66%
23:00 0°C° 0 mm 3 mps 756 mmHg 71%
Mostrar más

Necesitamos Su Consentimiento

Meteoprog y nuestros Proveedores de Servicios pueden almacenar y acceder a sus datos personales como cookies, identificadores de dispositivo u otras tecnologías similares de su dispositivo y procesar dichos datos para personalizar contenido y anuncios, además de ofrecer funciones de redes sociales y analizar el tráfico.

  • Almacenar y/o acceder a información en su dispositivo

    Se puede almacenar o acceder a cookies, identificadores de dispositivo u otra información de su dispositivo para los fines anteriormente indicados.

  • Anuncios y contenido personalizados, medición de anuncios y contenido, percepciones del público, y desarrollo de productos

    Los anuncios y el contenido pueden personalizarse en base a su perfil. Se pueden añadir más datos para personalizar mejor los anuncios y contenidos. Se puede medir el rendimiento de los anuncios y contenidos. Se puede obtener la percepción sobre el público que ha visto los anuncios y contenidos. Dichos datos pueden usarse para desarrollar o mejorar la experiencia del usuario, sistemas y software.

Al hacer clic en ‘Estoy De Acuerdo’ usted permitirá el uso de las cookies, identificadores de dispositivo, balizas web u otras tecnologías similares indicadas. Su configuración puede cambiarse desde el navegador de su dispositivo.

Para ciertos fines, los intereses legítimos pueden ser considerados por encima del consentimiento. Puede leer más sobre ello en nuestra Política de Privacidad y Cookies.